sat.trackr.live / text

‹ back to catalog

STARLINK-2196

NORAD 47773 · 2021-017BD

PAYLOAD ACTIVE UNKNOWN

§ Identity

Operator
Country
US
Launch date
2021-03-04
Launch site
AFETR
Launch vehicle
Mass (kg)
RCS (m²)

Purposes: comms

External: N2YO · Heavens-Above · Gunter

§ Orbital elements

Epoch: 2026-05-25T05:23:33.580608Z

Period
94.01 min
Inclination
53.1570°
Eccentricity
0.0002134
Mean motion
15.31709185 rev/d
Perigee alt
469.3 km
Apogee alt
472.2 km
Semi-major
6,848.8 km
B*
-2.4624e-5
RAAN
220.7633°
Arg perigee
101.2647°
Mean anomaly
258.8595°
Rev number
28,938

§ Raw data

STARLINK-21961 47773U 21017BD  26145.22469422 -.00001130  00000+0 -24624-4 0  99962 47773  53.1570 220.7633 0002134 101.2647 258.8595 15.31709185289387

JSON: /api/v1/satellites/47773 · /tle

For live sub-satellite position, see the globe view (requires WebGL).

§ Visibility from observer

Set your observer location to see the next 7 days of passes ≥ 10°. The values pass through the URL so the page stays shareable.

No JS? Fill the form by hand. The geolocation button needs JavaScript.